Theta_e
299 299 299 299 299 300 299 299 298 298 297 297 297 297 296 296 296 296 295 295 295 295 294 294 294 294 294 294 293 293 292 292 292 292 292 292 292 292 293 293 294 293
298 298 298 298 298 299 299 299 298 298 297 297 297 297 297 296 296 295 295 294 294 294 294 294 294 293 293 292 292 291 291 291 291 293 291 292 291 292 292 293 293 293
297 297 297 297 297 298 298 298 298 298 297 297 297 297 297 297 296 295 295 294 294 294 294 293 293 293 292 292 292 291 290 290 290 291 290 291 291 290 291 292 291 292
296 296 296 296 297 297 298 298 298 297 297 296 296 297 296 297 296 295 295 293 293 293 293 293 292 292 292 291 291 290 290 290 290 291 290 290 290 290 290 290 290 291
295 295 295 296 296 296 297 296 296 297 296 296 296 297 295 295 295 294 294 293 293 292 292 292 292 291 291 291 290 290 289 289 289 290 289 288 289 289 289 289 289 288
293 294 294 294 295 295 295 295 295 296 296 295 295 295 295 295 294 293 293 293 292 292 292 292 291 291 290 290 290 289 289 288 288 288 287 287 288 288 288 288 287 287
291 292 292 293 293 294 293 294 294 295 295 295 295 294 294 293 293 293 293 293 292 292 291 291 291 290 290 289 289 288 288 288 288 287 287 287 287 286 287 286 286 286
291 291 291 291 291 292 292 292 292 293 294 294 293 293 294 293 293 293 293 292 292 291 291 291 290 290 289 289 288 287 287 287 287 286 286 286 286 285 286 286 286 285
291 291 291 291 291 291 291 291 292 292 293 292 292 292 293 292 292 292 292 292 291 291 290 290 290 289 289 288 287 287 286 286 286 286 285 285 285 285 286 286 285 285
290 290 290 290 290 290 290 291 291 292 292 292 292 292 291 292 291 291 291 290 290 290 290 289 289 289 288 288 288 287 287 286 286 286 285 285 285 285 285 285 284 284
288 288 288 288 288 289 289 290 290 291 291 291 291 291 291 291 290 290 290 290 290 289 289 289 289 288 288 288 288 287 287 287 286 286 285 285 285 285 285 285 284 284
287 287 287 287 288 288 288 289 290 290 290 290 291 291 290 290 289 289 289 289 289 289 289 289 289 288 288 287 287 287 286 286 286 286 286 285 285 285 285 285 285 285
287 286 286 286 287 287 288 288 288 289 289 289 289 289 289 289 289 289 289 289 289 289 289 289 288 288 288 287 287 287 286 286 286 286 286 285 285 285 285 285 285 285
287 287 286 286 286 287 287 287 287 287 287 288 288 288 288 288 288 288 289 289 289 289 289 289 288 288 288 287 287 286 286 286 286 285 285 285 285 285 285 285 285 285
287 287 287 287 287 287 286 286 286 286 287 287 287 287 287 287 288 288 288 288 288 287 287 287 288 287 287 287 286 286 286 285 286 285 285 285 285 285 285 285 285 285
287 287 286 286 286 286 286 286 285 286 286 287 287 287 287 287 287 287 288 288 288 288 287 287 287 288 287 287 287 286 285 285 285 285 285 285 284 284 284 284 284 284
286 286 286 285 286 286 286 285 285 285 286 286 286 286 286 286 286 286 286 287 287 287 287 287 287 287 287 289 289 289 287 285 284 284 284 284 284 284 283 284 284 284
286 285 285 285 285 285 285 285 285 285 285 285 285 285 285 286 285 285 286 286 286 287 287 287 286 287 288 289 289 289 288 286 285 284 284 284 284 284 283 284 283 283
286 285 285 284 284 284 284 284 284 285 285 285 285 285 285 285 285 285 284 285 285 285 285 285 286 287 288 289 289 289 289 288 285 285 284 284 284 284 283 283 283 283
285 285 284 284 284 284 284 284 284 284 284 285 285 285 285 284 284 284 284 284 284 284 284 284 285 286 287 288 289 289 289 289 286 285 285 284 284 284 283 282 282 282
285 285 284 284 284 284 284 284 284 284 284 284 284 284 284 284 284 284 284 284 284 284 284 284 284 286 286 287 288 288 289 289 286 285 285 284 284 284 283 283 282 282
284 284 284 284 283 283 283 283 283 283 283 284 284 284 284 284 284 284 284 284 284 283 283 282 284 285 286 286 287 287 288 287 286 285 285 284 283 283 283 282 282 282
284 283 283 283 283 283 283 283 282 283 283 283 283 283 283 283 283 283 284 283 283 282 282 282 283 284 285 285 286 286 286 286 286 286 285 285 284 283 282 282 282 281
284 283 283 283 282 281 282 282 282 283 282 283 282 282 281 282 282 282 282 282 282 282 282 281 282 283 284 284 285 285 285 285 285 285 285 285 284 284 283 282 281 282
283 283 283 282 281 281 281 281 281 281 282 283 282 282 281 282 282 282 282 282 282 282 282 281 281 282 283 284 284 284 285 285 285 285 284 284 284 284 283 281 280 281
283 282 281 281 280 280 281 281 281 281 281 281 281 281 281 281 281 281 280 281 281 281 281 281 280 281 282 283 283 284 284 284 284 283 283 283 284 283 282 281 280 279
Wind_Speed
8 8 8 8 9 9 9 9 8 9 9 9 9 9 10 9 10 11 13 12 12 12 13 12 11 11 9 9 10 10 9 10 9 9 10 11 11 11 10 11 10 10
8 9 8 8 8 8 8 8 8 8 9 9 9 9 8 9 10 10 12 13 13 13 13 12 11 12 11 10 10 11 9 8 11 5 8 11 11 10 11 11 12 9
8 8 9 10 9 10 10 8 8 8 9 9 9 8 8 8 9 10 11 12 12 13 13 12 12 12 11 12 11 11 11 11 12 10 11 12 11 11 12 11 11 12
9 9 9 9 10 10 10 9 8 8 8 9 9 8 7 6 8 10 10 12 11 12 12 12 13 13 12 13 11 11 12 12 12 10 11 10 11 12 11 10 11 9
10 9 9 9 9 9 9 9 10 9 9 9 8 8 8 7 8 10 10 10 11 12 11 12 12 12 12 13 14 13 13 12 11 10 11 12 11 11 11 10 11 12
10 9 9 9 9 9 9 10 10 10 9 8 9 8 7 8 9 10 10 11 11 12 12 12 13 13 12 13 12 13 13 13 13 14 14 14 12 11 9 10 12 13
11 10 10 9 9 9 9 10 9 9 9 8 6 7 8 9 10 10 11 11 11 12 12 12 13 13 12 12 13 14 13 13 13 15 17 14 13 13 12 12 14 14
12 10 9 8 9 8 8 8 8 8 8 7 8 8 8 9 10 9 9 11 11 11 12 12 12 13 13 12 13 14 14 9 11 13 14 15 14 16 15 13 14 15
11 11 11 11 10 9 9 9 9 9 8 8 8 8 7 8 8 9 9 10 11 11 11 12 12 13 13 13 13 15 15 13 12 14 15 15 15 16 16 15 15 15
11 11 12 12 11 9 11 10 10 9 8 8 8 8 8 7 8 9 9 10 10 10 11 12 12 12 13 13 15 15 15 15 14 15 15 15 15 15 14 14 16 16
11 10 11 11 10 9 11 10 10 9 8 9 8 8 8 8 7 7 9 10 10 11 12 12 12 12 13 14 14 14 15 15 14 14 15 16 16 15 15 13 14 14
11 10 11 12 11 10 10 10 10 9 9 8 8 9 8 8 8 7 8 11 11 11 12 13 12 12 13 14 14 13 13 13 13 14 14 14 14 14 14 13 15 15
10 10 8 9 9 10 10 9 9 10 9 9 8 8 8 8 8 9 8 10 11 10 11 12 11 11 12 12 12 12 13 14 14 15 15 14 14 14 14 15 15 15
10 9 8 7 8 7 7 8 8 8 8 8 8 8 8 8 9 9 9 9 10 10 11 10 11 11 11 11 11 11 11 13 14 14 15 15 14 15 15 16 16 16
8 8 9 11 10 8 8 7 9 7 8 8 8 8 6 7 8 8 9 10 9 9 9 9 10 10 7 9 10 11 12 13 14 15 15 14 14 14 15 16 15 15
8 8 8 9 9 11 10 9 9 9 8 7 8 8 8 8 8 9 9 10 10 10 9 8 9 7 12 16 15 11 10 10 10 12 14 14 13 13 15 16 16 15
7 8 8 9 9 9 9 10 11 9 9 6 6 6 6 7 6 7 8 9 11 11 11 9 7 6 15 14 15 20 15 10 10 10 12 13 13 13 13 14 15 15
8 8 8 9 9 8 9 9 8 7 8 8 8 9 7 5 6 6 7 8 8 10 11 10 8 10 14 14 17 19 19 14 10 10 11 13 14 14 13 13 13 13
8 8 8 6 7 7 7 8 8 9 8 7 7 8 8 8 9 8 7 7 7 9 10 9 9 10 13 15 17 20 21 20 10 11 11 14 14 13 14 13 12 11
10 8 7 8 6 6 7 7 8 8 9 9 8 7 6 7 7 8 8 8 7 8 8 8 9 9 13 15 16 19 21 19 15 16 13 13 13 12 11 12 13 10
10 8 9 9 9 8 7 7 8 9 8 8 8 8 8 7 6 6 6 6 7 7 8 8 7 11 13 15 17 19 21 20 14 14 13 11 11 11 11 11 12 10
9 9 9 9 9 9 9 9 9 9 9 9 8 8 8 8 8 6 7 7 7 6 8 8 8 12 14 16 18 19 21 14 12 13 14 14 10 9 9 9 10 10
10 9 9 9 9 10 9 9 9 10 10 8 9 9 9 9 9 8 8 7 8 7 7 9 8 10 13 15 17 19 17 12 12 10 11 11 12 9 8 11 10 9
9 8 9 9 9 11 11 10 10 9 10 9 10 9 10 9 9 9 8 7 8 8 7 8 9 10 13 14 16 18 16 12 12 13 12 11 10 10 8 7 9 17
9 8 9 10 13 13 11 12 11 11 10 9 9 10 10 10 8 9 8 8 7 8 10 10 9 10 14 15 16 17 14 10 12 12 15 15 12 10 8 8 9 14
10 12 12 13 13 14 11 11 10 11 11 11 10 9 10 10 10 9 8 10 9 10 8 8 9 9 9 15 16 17 18 12 10 12 13 14 13 9 7 7 9 10
Wind_Direction
272 266 260 256 252 249 246 237 227 223 223 220 219 214 211 209 204 200 203 206 208 208 209 211 207 205 205 205 205 207 210 211 211 207 205 204 212 208 208 203 209 212
285 278 271 268 264 257 251 242 237 230 231 227 224 220 212 202 199 198 202 206 207 208 207 207 206 205 205 206 204 208 214 213 215 201 209 206 214 212 218 209 212 212
302 288 279 272 270 268 262 254 244 238 237 238 231 223 220 202 199 202 205 207 212 213 210 207 205 204 203 206 204 206 213 211 214 207 210 211 211 213 216 209 213 209
326 308 294 284 277 272 268 263 251 244 240 237 231 224 217 193 201 203 207 207 212 213 213 209 207 203 200 201 201 210 214 217 216 207 206 210 209 211 211 202 208 205
340 328 314 300 288 280 276 266 260 254 245 238 238 225 217 208 204 210 207 206 208 214 213 211 211 211 204 202 199 208 209 215 212 205 211 214 213 207 213 199 204 208
354 345 331 316 304 296 284 276 268 264 255 245 240 235 223 213 212 212 209 208 208 212 214 212 211 210 207 209 207 212 209 208 208 202 211 213 212 206 205 204 208 211
356 355 346 336 322 306 296 288 282 275 270 261 251 234 224 219 216 213 212 211 210 210 211 211 210 211 209 210 212 215 215 216 210 203 206 210 208 208 202 205 211 214
359 355 351 339 334 319 303 293 283 280 275 268 259 252 230 226 221 217 215 214 213 212 211 212 211 210 209 207 213 214 215 210 211 211 211 214 206 211 201 201 207 212
357 357 356 355 349 342 332 321 310 298 289 275 268 261 242 230 229 224 220 218 218 217 213 213 213 211 209 209 212 214 215 212 208 213 213 213 213 215 206 198 199 208
359 356 357 358 354 348 340 332 324 315 305 292 274 262 261 241 226 229 226 223 223 220 218 216 214 214 213 213 215 214 216 217 213 213 217 216 217 216 211 203 203 204
352 354 354 352 351 346 344 340 332 325 314 301 291 276 262 257 240 227 233 229 228 226 223 222 219 215 215 218 217 216 217 218 217 215 216 218 218 217 215 207 206 210
351 349 349 347 346 344 342 339 338 334 327 317 307 296 280 258 247 237 226 235 231 229 230 229 225 222 221 222 220 217 217 219 220 220 221 221 220 219 217 212 214 213
348 347 337 338 338 337 334 338 338 337 333 326 317 304 294 281 262 248 238 234 237 233 233 232 230 225 225 224 222 219 218 221 223 225 225 225 223 220 219 221 217 216
340 334 332 327 328 322 323 329 331 333 332 328 326 316 305 289 279 268 255 241 242 239 238 235 232 230 228 227 224 220 219 223 222 224 225 225 224 220 221 222 220 215
331 330 328 334 329 327 330 332 339 330 329 327 324 322 313 305 291 280 274 263 247 234 236 231 233 231 217 220 222 222 220 223 223 223 223 227 226 223 222 223 222 219
328 328 330 327 331 333 334 331 328 332 328 322 325 324 321 315 312 301 286 276 267 253 236 233 233 221 233 233 231 231 221 222 223 224 224 226 226 224 225 224 225 223
323 326 326 328 329 325 324 328 331 329 327 322 322 318 312 314 302 297 291 285 278 268 256 241 223 220 240 235 232 230 232 226 220 224 222 226 227 225 225 223 224 224
315 318 320 318 322 322 322 321 319 317 320 323 324 325 320 314 298 286 286 283 281 279 271 265 253 243 238 232 231 230 227 232 225 221 225 231 232 229 228 226 223 222
307 307 307 307 308 309 310 311 314 314 313 316 316 315 316 317 315 312 297 282 273 275 275 268 271 260 246 233 231 230 227 226 234 228 227 230 229 225 224 223 224 218
308 307 299 300 298 295 301 299 302 302 306 310 306 301 298 298 299 300 298 295 285 278 273 271 267 266 255 244 234 229 229 225 233 234 232 230 225 219 216 216 213 205
301 300 303 304 304 300 294 291 292 295 291 296 303 303 302 296 290 289 284 286 282 280 280 277 271 270 267 257 245 234 230 229 231 235 237 233 226 219 216 212 212 209
296 291 292 296 295 293 289 290 291 289 292 296 293 293 288 290 291 284 280 276 278 273 277 274 270 266 261 261 257 248 238 230 231 233 236 239 229 214 215 214 211 207
284 286 285 290 291 287 282 282 284 286 288 292 289 287 290 290 289 288 290 287 281 281 274 273 274 265 262 263 261 256 249 243 237 231 234 233 235 217 203 222 220 211
277 277 280 280 285 285 285 286 285 284 283 285 285 287 287 284 286 289 282 275 270 267 267 274 275 267 266 266 264 259 253 247 244 242 235 232 235 226 215 208 210 219
274 268 271 278 283 284 284 286 285 282 280 278 275 277 275 277 278 282 282 276 261 258 264 260 262 266 264 265 260 258 254 249 251 250 250 244 235 226 204 210 209 218
271 277 276 277 278 280 283 282 282 282 279 276 276 276 279 279 275 272 272 278 278 279 260 239 253 254 251 257 258 255 252 250 247 251 250 252 244 230 212 204 208 204